User: anonymous   Login
Location: Dampvalley
(47.9094°N, 6.1967°E)
Time: 10:57:29
(UTC+00:00)
Language:

DELFI C3 - Orbit

View from above orbital plane
View from above orbital plane
View from above satellite
View from above satellite

Ground track
Ground track

The orbit data is extracted from the following two-line orbital elements,

1 32789U 08021G   21334.87659864  .00003541  00000-0  22168-3 0  9991
2 32789  97.3617   3.7839 0009741 292.8907  67.1294 15.09969095741938
Epoch (UTC): 30 November 2021 21:02:18
Eccentricity: 0.0009741
inclination: 97.3617°
perigee height: 529 km
apogee height: 543 km
right ascension of ascending node: 3.7839°
argument of perigee: 292.8907°
revolutions per day: 15.09969095
mean anomaly at epoch: 67.1294°
orbit number at epoch: 74193

The dashed part of the orbit path shows where the satellite is in the earth's shadow,  

DLR